Tracking 31027 objects as of 19-Jul-2025
HD Live streaming from Space Station
objects crossing your sky now

ARIANE 5 DEB (SYLDA)

Track ARIANE 5 DEB (SYLDA) now!


NORAD ID: 27833
Int'l Code: 2003-028D
Perigee: 592.7 km
Apogee: 35,643.2 km
Inclination: 6.4 °
Period: 635.6 minutes
Semi major axis: 24488 km
RCS: 16.2807 m2 (large)
Launch date: June 11, 2003
Source: France (FR)
Launch site: FRENCH GUIANA (FRGUI)

Note: This is SATELLITE DEBRIS
Your satellite tracking list
NOAA 16 DEB
Track 1 satellite(s)




NASA's NSSDC Master Catalog

Two Line Element Set (TLE):
1 27833U 03028D   25199.22261983 -.00000080  00000-0  43019-3 0  9994
2 27833   6.4265 244.5346 7156378  62.7999 351.2627  2.26541410182535
Source of the keplerian elements: AFSPC